Theta_e
336 336 336 336 335 335 335 334 334 335 337 337 337 337 336 335 334 334 334 335 335 334 334 334 335 337 339 339 340 340 339 337 336 335 334 335 337 338 339 340 339 339 335 329 331 332 329 328 328 328 330 331 331 331 331 332 333 334 334 334 335 335 334 334 333 332 332 332 333 333 334 334 334 333 332 332 331 332 332 331 331 331 330 330 330
336 336 337 337 337 336 336 335 334 335 336 337 337 337 336 335 335 335 335 335 335 335 335 335 336 337 339 341 341 340 340 338 337 335 335 336 337 338 339 341 340 340 339 333 329 331 331 330 331 329 330 330 330 331 331 332 333 333 334 335 335 335 335 335 335 334 333 333 332 333 333 333 333 332 331 330 329 329 329 329 329 329 329 328 328
336 336 337 337 337 337 336 336 335 335 335 336 338 338 338 338 337 336 336 336 336 336 337 337 337 338 339 341 342 341 340 339 338 336 335 336 336 338 340 341 340 340 341 338 332 330 331 331 332 332 331 331 331 331 332 332 332 333 334 335 335 335 335 335 335 335 335 334 334 333 332 332 332 331 330 330 329 328 328 329 329 329 328 328 328
336 337 338 339 338 338 337 335 335 334 334 335 337 339 340 340 339 337 336 337 337 337 337 338 339 339 339 340 342 342 341 341 340 338 337 336 335 337 340 341 341 341 341 341 336 332 332 331 332 333 333 333 333 332 332 332 332 332 333 334 335 335 335 335 335 335 335 335 335 335 334 333 332 331 331 330 329 329 329 329 329 329 329 329 330
338 337 339 339 339 339 338 336 334 332 332 332 334 337 338 338 338 337 336 337 338 338 338 339 339 340 340 340 341 342 342 341 342 341 339 338 337 337 339 341 341 341 341 342 340 336 333 332 331 333 334 334 334 334 334 333 334 333 333 333 334 334 335 335 335 335 335 335 335 335 335 334 333 332 331 330 330 329 330 330 330 330 331 331 331
339 339 339 339 338 339 339 337 334 332 331 331 330 332 334 336 337 336 336 336 337 338 339 339 340 341 341 341 341 341 342 342 341 341 341 340 340 339 338 340 341 340 341 342 342 340 336 333 333 332 333 333 334 334 334 333 334 334 334 333 333 333 333 334 334 334 334 334 334 335 335 334 333 333 332 330 330 329 330 332 333 332 332 332 332
343 342 341 340 340 339 340 339 337 334 331 330 329 329 331 334 336 337 336 336 336 338 338 339 340 341 341 341 341 341 341 341 341 341 341 341 341 340 339 340 341 340 339 341 342 342 338 334 334 334 333 333 334 334 335 334 335 335 334 334 333 333 333 334 334 333 333 333 333 334 334 333 332 332 331 330 329 330 330 332 333 334 333 333 333
347 345 343 342 341 340 340 340 340 338 335 332 330 328 329 332 334 336 338 336 336 338 339 339 339 340 340 340 340 341 340 340 340 340 341 341 341 341 341 341 341 340 339 340 342 343 341 335 334 335 335 335 335 335 336 336 336 336 335 335 334 334 333 333 333 333 332 332 332 331 331 331 330 330 328 329 330 329 330 332 333 334 334 333 333
347 347 346 345 344 343 342 341 341 341 339 336 333 329 328 328 330 334 338 339 338 339 339 340 340 340 340 340 339 340 339 339 339 340 341 341 341 341 341 341 341 340 339 340 341 342 341 337 335 337 338 337 337 337 336 337 337 337 337 337 336 336 334 334 334 334 333 332 331 330 329 329 329 328 326 326 327 329 330 331 333 333 333 333 334
343 344 344 345 345 345 345 345 343 341 340 339 336 334 331 329 329 332 337 339 340 340 340 340 339 339 339 339 339 338 337 337 336 338 340 340 340 341 341 341 340 340 340 340 339 340 340 338 338 339 339 339 339 338 338 338 338 338 339 339 339 339 337 336 336 335 334 333 333 332 331 330 330 330 329 328 327 327 329 330 331 333 333 333 333
343 344 345 345 345 346 346 346 346 344 341 339 338 338 336 334 332 332 335 338 340 340 341 340 339 339 339 339 339 339 337 335 334 334 336 337 338 339 341 341 340 340 340 339 339 338 339 339 339 340 340 340 339 339 339 339 339 338 339 340 341 341 340 339 339 337 337 336 335 334 333 333 333 333 333 332 331 329 329 330 331 332 333 333 333
345 347 348 347 347 346 346 346 347 347 344 340 339 338 338 337 336 334 334 336 338 339 339 340 340 339 339 338 339 340 339 338 335 333 333 333 333 335 339 341 340 340 340 339 338 337 338 338 338 339 340 339 339 340 340 340 340 339 338 339 341 341 341 340 340 340 339 339 338 337 336 335 335 335 334 334 334 333 332 332 332 332 333 334 335
343 346 346 347 348 348 347 345 343 345 344 342 340 339 338 339 339 337 337 336 336 337 338 338 339 339 339 338 337 339 340 341 339 338 336 333 331 331 334 338 340 340 339 339 338 337 338 338 338 338 338 338 338 338 339 340 341 340 339 340 341 342 341 340 340 340 339 339 339 340 340 339 338 337 336 336 336 336 335 335 335 334 335 335 336
342 342 344 346 348 349 349 348 346 345 345 345 344 342 340 340 341 340 339 338 337 336 336 337 339 339 339 339 338 337 338 339 340 340 339 337 334 331 331 333 338 340 340 339 338 337 337 338 338 337 337 336 335 336 337 339 340 341 341 341 341 341 340 340 339 339 339 339 339 340 340 341 340 340 339 338 337 337 337 337 337 337 337 337 337
339 341 343 345 346 345 345 347 349 350 347 345 345 344 341 340 340 341 340 340 340 339 337 338 339 340 341 341 339 337 337 336 337 338 339 339 336 334 332 331 333 336 339 340 339 339 337 337 337 336 335 334 334 334 335 337 339 341 342 340 339 339 339 338 338 338 338 339 339 339 339 340 340 341 341 340 338 337 337 337 338 338 338 338 338
332 336 339 341 343 343 342 342 347 349 346 343 343 344 343 341 341 341 341 342 342 341 339 338 340 342 342 342 341 339 339 337 336 337 338 340 338 337 335 333 332 332 336 339 339 339 338 337 337 335 335 335 334 333 334 335 337 339 340 339 338 338 338 338 338 337 337 338 338 338 339 338 339 339 340 340 340 338 338 337 338 339 338 338 338
331 333 335 338 339 341 342 340 344 347 345 343 341 339 340 342 342 343 343 343 342 342 340 340 342 343 343 342 342 340 339 337 337 338 339 341 340 339 338 336 334 333 334 336 337 338 339 339 338 337 336 335 335 334 333 333 335 337 337 337 337 338 338 338 338 338 337 337 337 338 338 338 338 338 338 339 339 339 338 338 338 338 338 338 338
333 334 334 336 338 339 340 339 341 346 347 345 344 341 339 340 341 343 343 343 344 344 342 341 342 343 344 343 342 341 339 338 339 340 339 341 341 340 339 338 337 335 335 335 336 337 337 337 338 337 337 336 335 335 334 333 334 335 337 337 338 339 339 340 340 339 338 338 338 338 339 339 339 338 338 337 337 337 337 338 338 338 337 337 338
336 336 335 335 337 339 341 341 341 344 345 346 346 344 342 341 340 341 341 341 345 345 342 341 342 343 342 342 342 342 340 339 340 340 340 340 340 340 339 338 338 337 336 336 336 336 335 336 336 336 337 337 336 335 334 334 334 335 336 338 339 340 341 341 341 341 341 340 338 338 339 339 340 339 338 337 337 336 336 336 337 338 338 338 338
337 337 334 333 335 337 339 341 342 344 345 345 345 344 343 344 343 341 340 341 344 344 341 341 342 342 341 340 341 342 342 341 341 341 341 341 340 340 340 339 338 337 336 335 335 335 334 334 334 334 335 336 336 335 333 332 333 335 336 337 339 340 341 341 342 342 343 342 341 339 340 339 339 339 340 339 338 337 336 337 337 338 339 339 339
336 336 333 331 331 333 336 339 340 343 344 343 343 345 345 344 342 341 341 343 344 342 341 341 341 340 339 339 340 342 343 343 342 342 342 342 341 340 340 340 339 337 336 335 333 333 333 334 334 334 334 334 334 334 332 331 332 334 335 336 337 338 339 340 341 341 343 343 343 342 341 341 341 340 340 341 340 339 338 338 338 339 340 340 340
336 336 333 331 330 332 334 336 338 340 341 340 340 343 344 342 341 340 341 343 342 342 341 341 341 340 339 339 340 343 344 343 342 341 342 343 342 341 341 340 340 339 337 336 334 334 335 335 335 335 336 335 335 334 333 332 332 333 335 336 337 338 339 339 340 340 341 343 343 343 343 343 343 342 341 341 341 340 340 340 340 340 340 341 341
337 336 333 332 333 334 336 337 339 341 341 340 338 339 341 341 340 340 341 341 341 340 338 338 338 338 338 340 340 342 343 343 341 340 341 341 341 341 340 340 340 339 339 337 337 336 336 334 334 335 336 338 338 338 337 336 335 334 335 336 336 337 337 339 341 342 342 342 343 343 344 343 343 344 343 343 343 342 342 341 342 341 340 341 340
337 336 333 332 333 336 339 340 341 341 340 340 338 338 339 339 339 338 340 340 339 338 337 336 335 335 336 336 336 336 338 339 339 339 339 337 340 341 340 339 341 340 339 338 337 336 336 334 332 332 334 337 340 341 341 340 338 336 334 335 336 336 337 340 343 344 344 343 343 344 343 343 344 344 344 344 344 343 342 341 341 342 341 340 340
337 336 334 333 332 335 339 340 340 340 338 338 337 336 336 336 336 337 338 338 337 336 336 336 335 334 333 333 333 332 333 334 337 339 339 338 339 341 340 341 342 341 339 339 338 337 335 333 332 333 336 337 340 341 342 341 340 339 337 337 337 338 340 342 343 343 342 343 343 343 344 343 344 344 345 345 344 343 343 341 341 341 341 340 340
336 336 335 335 334 335 337 338 339 338 338 338 336 335 335 336 337 337 336 335 334 334 335 334 334 333 332 330 330 331 332 335 337 338 340 341 340 339 339 341 342 342 341 340 339 339 337 334 333 335 337 339 339 339 340 340 341 341 340 340 340 341 343 342 341 341 341 341 342 342 342 343 343 344 344 345 344 344 343 343 342 341 341 341 341
334 334 334 334 335 335 336 336 336 336 336 337 337 336 336 336 337 336 335 334 334 334 333 333 333 333 332 330 330 331 332 335 338 338 338 339 340 339 339 341 342 342 342 341 340 340 338 335 333 335 337 339 339 338 339 339 339 340 340 340 340 341 341 341 341 341 341 341 341 341 342 342 343 343 343 344 345 345 344 343 344 343 341 341 342
331 331 331 332 332 333 333 334 334 334 334 335 335 335 335 335 335 334 334 333 333 333 333 333 333 333 332 332 332 333 333 334 337 338 338 338 340 340 340 340 341 342 341 341 340 339 339 337 334 334 336 338 339 339 339 339 339 339 340 340 341 341 341 341 341 341 341 341 341 341 342 341 342 342 341 342 342 343 343 344 344 344 343 342 342
329 330 330 330 330 330 330 330 331 331 331 332 331 332 332 332 332 332 332 332 332 332 333 333 334 334 333 333 334 334 334 333 334 337 338 338 338 339 339 339 340 341 341 341 339 339 339 339 335 334 335 337 338 339 340 340 339 340 340 340 340 340 340 341 341 341 341 341 341 341 341 341 341 341 341 341 341 341 342 343 344 344 344 343 343
329 329 329 329 329 329 329 329 329 329 330 329 329 330 330 330 330 330 330 330 331 332 332 333 334 334 334 334 335 334 334 333 332 333 336 337 337 338 338 338 340 341 341 341 339 338 339 340 337 335 335 335 336 338 339 339 339 339 339 339 339 339 340 340 341 340 340 341 341 342 342 342 342 342 341 341 341 341 342 344 345 344 345 346 346
328 328 328 328 328 329 329 329 329 330 330 330 330 330 330 331 331 330 330 330 330 331 331 333 334 334 333 333 334 333 332 332 332 332 332 334 336 338 339 339 340 340 341 341 340 338 339 341 340 338 336 335 335 336 338 339 339 340 340 339 339 339 339 340 339 339 340 341 343 344 344 344 344 344 344 343 343 343 343 344 345 346 346 347 347
327 327 327 328 328 329 329 329 329 329 329 329 329 329 329 330 330 331 331 331 331 331 331 332 334 334 334 334 334 332 331 332 332 332 331 330 332 335 338 340 340 340 340 341 341 338 337 339 340 340 339 337 336 335 336 338 339 340 340 339 338 337 337 337 337 338 339 339 340 341 342 343 344 345 345 346 345 345 345 345 345 345 346 347 347
326 326 327 327 328 327 327 326 325 325 326 327 327 328 328 328 329 330 330 332 332 333 332 333 333 334 334 334 334 332 331 331 331 331 331 330 330 332 334 337 339 340 340 340 340 338 337 337 338 339 339 339 337 335 334 335 336 338 339 339 339 339 338 337 337 337 337 337 337 337 338 338 340 342 343 344 345 345 345 345 345 345 345 345 345
326 326 326 326 326 326 325 325 324 324 326 327 328 328 329 330 330 330 330 332 332 333 333 333 333 334 335 334 334 332 331 330 330 330 331 331 331 331 332 335 336 338 339 339 339 338 338 338 338 337 338 339 338 335 334 335 334 335 338 339 340 341 340 339 339 338 337 338 338 337 337 337 339 341 342 342 343 343 344 344 344 345 345 345 344
327 326 325 325 324 324 324 324 324 325 327 327 327 328 330 330 331 331 331 332 333 333 334 334 333 334 334 334 334 333 331 330 330 329 331 331 331 331 332 333 333 336 339 338 337 337 338 339 339 338 337 338 339 336 334 335 336 335 336 338 341 341 341 340 340 339 338 339 338 338 338 338 339 340 341 342 343 343 343 343 344 345 345 346 345
326 325 325 325 324 323 323 323 325 326 327 327 327 330 331 332 332 332 331 332 333 334 334 334 334 334 334 334 334 333 331 330 329 328 330 332 331 331 332 331 330 332 336 338 337 336 336 338 339 339 338 338 339 338 336 336 336 336 335 338 341 340 340 340 340 339 339 338 339 338 338 337 337 338 340 342 343 343 343 343 344 344 344 344 345
326 325 326 325 324 323 323 324 326 327 327 325 325 328 330 330 331 332 332 332 333 334 335 335 334 334 334 334 334 335 333 332 331 329 329 331 332 331 330 329 330 331 335 338 338 336 335 337 339 339 339 339 339 340 339 337 336 335 336 337 340 341 340 340 339 339 339 340 340 339 339 338 337 337 339 341 342 343 343 343 343 343 344 344 345
326 325 326 325 324 324 323 325 327 327 326 325 324 325 325 326 327 329 330 331 332 334 335 335 335 334 334 333 334 336 334 333 332 331 330 330 331 331 329 329 332 334 334 337 339 337 335 336 338 339 339 339 340 340 339 337 336 336 337 338 341 342 340 339 339 339 340 341 340 339 338 339 338 337 339 342 343 342 342 343 343 343 344 344 345
326 326 326 325 325 324 324 326 327 327 327 325 324 325 325 325 325 326 327 328 329 330 333 335 335 334 334 334 334 336 335 334 334 333 332 330 331 331 331 332 335 336 335 337 338 338 335 334 336 338 339 340 340 340 339 338 336 337 337 338 340 342 341 339 339 338 341 341 339 337 336 338 338 338 339 341 342 341 341 342 342 343 344 344 344
326 325 325 325 326 325 325 326 327 327 327 325 325 325 324 325 326 327 328 328 328 328 328 331 334 334 334 334 334 335 335 335 335 335 334 333 333 334 334 335 336 335 336 337 337 337 336 334 333 334 336 339 340 340 340 338 337 337 338 338 341 341 340 340 339 339 340 338 336 335 335 337 338 337 338 340 341 341 341 341 342 343 343 343 343
326 325 325 326 326 326 326 326 326 326 327 326 325 325 324 324 326 327 328 328 329 329 327 328 330 332 334 334 334 334 333 334 334 334 334 333 333 333 334 335 336 335 335 337 336 336 336 335 332 331 334 337 340 340 339 337 337 338 338 339 341 341 341 341 340 339 339 337 334 334 336 337 338 338 338 339 340 341 341 341 342 343 343 343 343
327 326 325 325 326 326 326 326 326 326 326 326 325 324 323 324 324 326 327 328 329 330 330 329 328 330 332 333 334 334 334 334 333 333 333 332 332 332 332 333 334 334 335 335 335 335 335 335 333 332 334 336 338 338 337 336 337 338 339 340 341 341 341 341 340 339 338 336 333 334 336 338 338 338 338 339 340 341 341 341 342 343 343 343 344
326 326 325 325 325 326 326 326 326 326 326 326 325 324 323 323 324 325 327 327 329 331 331 331 329 330 331 331 332 334 334 335 334 333 333 332 332 332 332 333 333 333 334 334 334 334 334 334 333 334 335 335 335 334 334 336 338 339 340 340 341 341 341 341 340 339 337 335 333 334 337 338 338 338 338 339 340 341 341 341 341 342 342 343 345
325 325 325 324 325 326 326 326 326 326 326 326 325 323 323 323 324 326 326 326 328 330 332 332 332 331 331 332 332 333 333 335 334 334 333 333 333 333 333 333 334 334 333 333 333 334 334 334 334 334 335 335 334 334 334 336 338 339 339 341 341 341 341 341 341 340 337 334 333 335 337 338 338 338 339 339 340 340 341 341 342 342 343 344 345
324 324 324 324 325 325 326 326 325 325 326 326 325 323 322 323 324 325 325 325 327 329 331 333 334 333 334 335 335 335 334 335 334 335 335 335 335 335 334 334 334 334 334 333 333 333 333 334 334 334 334 334 334 334 333 335 337 339 340 341 340 339 341 342 341 339 336 334 334 337 338 337 338 338 338 339 340 340 340 341 342 343 344 344 345
324 325 324 325 325 325 326 325 324 325 326 325 324 322 322 323 324 325 324 324 325 328 330 333 334 335 335 336 337 337 337 337 336 337 337 337 337 337 336 335 335 335 335 335 334 333 333 334 335 335 335 334 335 335 334 334 338 340 340 339 339 340 341 341 339 337 335 334 336 338 338 337 338 338 338 339 340 339 339 341 343 344 344 343 343
324 324 324 325 324 324 324 323 323 325 326 325 324 322 322 322 323 324 325 323 324 326 329 330 332 335 336 336 337 337 336 336 336 336 337 337 337 337 337 337 336 336 336 336 335 334 334 334 335 336 336 335 335 337 337 337 340 341 340 339 339 341 340 338 336 335 334 335 337 338 339 338 338 339 339 339 338 338 339 342 344 344 343 342 342
324 324 324 325 323 322 322 322 323 325 324 323 323 323 323 322 323 324 325 323 323 324 327 328 330 333 334 334 335 335 335 336 336 336 336 336 337 338 338 338 337 337 337 337 336 335 334 335 336 337 336 335 337 340 340 341 342 340 339 339 341 341 338 336 334 334 334 335 337 339 339 339 338 339 339 338 338 339 340 342 343 343 342 342 341
324 324 324 324 323 322 323 321 322 325 323 321 323 324 323 322 322 323 324 323 322 323 325 326 329 330 331 332 332 333 335 336 336 337 337 337 339 339 339 339 339 338 338 337 336 334 334 336 337 337 337 337 339 342 342 342 340 337 337 339 340 340 338 335 333 332 334 337 339 340 340 339 338 338 337 338 339 339 340 342 342 341 341 341 341
323 324 324 323 322 323 323 320 321 324 324 322 323 323 323 323 323 322 323 323 323 323 322 323 325 327 329 330 331 332 334 335 336 337 338 339 340 341 340 340 339 339 338 337 336 336 336 338 339 338 338 339 341 342 342 340 338 336 336 338 339 339 337 335 334 334 337 339 340 340 340 340 337 337 337 338 339 339 341 342 342 341 340 340 340
322 324 323 322 322 323 323 321 320 324 325 323 323 322 321 322 324 323 323 323 324 324 322 321 322 324 325 327 329 330 332 333 334 336 337 337 338 340 340 339 339 338 338 337 337 337 339 339 339 338 339 341 342 342 341 338 336 336 337 338 339 337 336 335 337 339 340 341 340 340 340 339 337 337 338 338 339 339 340 340 341 340 339 339 339
Wind_Speed
14 14 14 14 14 14 14 15 14 14 15 16 15 14 14 13 13 13 13 11 11 11 12 12 11 11 12 13 14 16 17 17 18 17 16 14 13 12 12 11 11 9 8 8 9 9 8 8 9 10 12 12 12 12 11 11 11 11 11 11 10 10 10 9 9 9 9 9 10 10 9 9 9 9 9 9 9 9 9 9 8 8 9 9 9
15 15 15 15 15 15 15 15 15 15 16 16 15 15 14 13 13 13 13 13 12 11 12 13 13 12 12 13 13 15 17 18 19 19 18 17 15 13 13 13 13 12 10 9 10 11 10 10 10 10 11 12 12 12 11 11 11 11 11 11 11 11 10 10 10 10 10 10 10 10 10 10 10 9 9 10 10 9 9 9 8 8 8 8 8
16 16 16 16 16 16 16 16 16 16 15 15 15 15 15 14 13 13 14 14 13 13 13 14 14 14 14 13 13 14 16 18 19 19 19 18 17 15 14 14 15 14 13 11 12 12 12 12 12 12 11 11 12 12 12 12 11 12 12 12 12 11 11 11 11 11 11 11 11 11 10 11 11 10 10 10 10 9 9 9 8 8 7 7 7
17 17 17 17 17 17 17 17 17 16 16 15 15 16 16 15 15 15 15 15 15 14 14 15 15 15 15 14 14 14 15 17 18 19 20 19 19 17 16 16 16 17 16 14 14 14 14 14 13 13 13 12 12 12 12 12 12 12 12 12 12 12 12 12 12 12 12 12 12 12 11 12 12 12 12 11 10 9 9 9 8 8 7 7 7
18 19 19 18 18 18 18 18 18 17 17 16 16 17 17 17 17 17 16 16 15 14 14 14 15 15 15 15 15 14 14 16 17 18 19 19 20 19 18 17 17 18 19 17 16 16 16 15 14 14 14 14 14 13 13 13 13 12 12 12 13 13 13 13 13 14 14 14 13 13 13 13 13 13 13 12 11 10 10 9 9 8 8 7 8
19 20 21 21 21 20 20 19 18 18 17 17 18 18 18 18 18 18 17 17 16 14 14 13 13 14 14 15 16 15 15 17 17 18 18 18 19 20 20 18 18 19 19 19 18 17 17 17 16 15 15 16 15 15 14 14 14 14 13 13 13 14 14 15 15 15 15 15 15 15 15 15 15 14 14 13 12 11 10 10 10 9 9 9 9
21 22 23 24 24 23 22 20 19 19 19 18 19 19 19 19 18 18 18 18 17 15 14 13 13 14 14 15 16 16 17 17 17 18 18 17 18 19 20 20 19 19 19 20 20 19 18 18 17 16 16 16 16 16 15 15 15 15 14 14 14 14 14 15 15 15 16 16 16 16 16 16 16 15 15 14 13 12 12 11 11 11 10 10 10
23 24 25 25 25 25 24 22 21 21 20 20 20 21 21 20 19 19 19 19 18 17 15 14 14 15 15 16 16 16 17 17 18 17 17 18 18 19 20 21 20 19 20 20 21 21 20 19 19 18 17 17 17 17 16 16 16 16 15 15 15 15 15 15 15 15 15 15 16 16 16 16 16 16 15 15 15 14 13 13 13 12 12 12 12
25 27 28 28 28 28 27 25 24 24 22 22 22 22 21 22 21 20 19 19 19 18 17 16 15 15 16 17 17 17 17 17 18 18 18 19 19 19 20 21 20 20 21 21 21 21 21 20 20 19 19 19 19 18 18 17 17 17 16 16 16 16 16 16 16 16 16 16 15 15 15 16 16 15 15 15 16 16 15 15 14 14 14 14 14
27 28 29 30 31 31 30 28 27 26 25 24 24 23 23 23 23 22 21 20 20 20 19 18 17 16 18 18 18 19 18 18 18 19 20 20 19 18 19 20 21 21 21 21 21 21 21 21 21 20 20 19 20 20 19 19 18 18 18 17 17 17 17 16 16 16 16 16 16 16 16 16 16 15 15 16 16 16 16 16 16 16 16 15 15
29 31 32 33 33 33 32 32 31 30 29 28 26 26 26 25 25 24 23 23 22 21 20 20 20 19 19 19 19 20 21 20 20 21 22 22 21 19 19 21 21 21 22 22 21 21 22 22 22 21 21 20 20 20 21 21 21 20 19 19 18 17 17 17 17 17 17 17 17 17 17 17 17 17 16 16 17 17 17 17 17 17 17 17 16
29 31 33 33 33 33 32 32 33 33 33 32 30 28 27 27 26 26 25 24 24 24 23 22 23 23 22 21 20 21 23 24 23 24 24 25 24 23 22 22 23 23 23 23 23 23 23 23 23 23 22 21 21 21 21 21 22 22 21 21 20 19 18 18 18 19 18 18 18 18 18 18 18 18 18 18 18 18 18 18 18 18 18 18 17
28 29 30 30 31 32 32 33 33 34 36 35 33 30 28 28 27 27 27 26 26 26 25 25 26 26 25 24 23 23 24 26 27 27 27 27 27 26 25 24 25 25 24 25 25 24 25 25 25 25 24 23 23 22 22 22 22 23 22 21 20 20 20 20 20 20 20 20 20 20 20 19 19 18 18 19 19 19 19 19 19 19 19 18 18
27 28 29 29 30 30 32 34 34 35 37 36 35 33 31 30 29 29 29 29 28 27 27 27 28 27 26 25 25 25 26 27 29 30 30 31 30 29 28 27 27 26 26 26 27 27 27 27 27 27 26 26 25 24 24 24 23 23 22 20 20 20 20 20 20 21 21 21 21 21 21 21 21 21 20 20 20 20 20 20 20 20 20 20 20
27 27 28 30 31 31 32 34 34 35 36 35 36 37 35 32 31 30 30 30 30 29 29 29 28 27 25 25 27 26 26 28 30 31 31 32 32 31 30 30 29 28 28 29 29 29 29 29 28 28 27 27 26 26 25 25 25 25 24 23 22 21 21 21 21 21 22 21 22 22 22 22 22 23 23 22 21 21 21 21 21 21 20 20 21
27 28 29 30 31 33 34 34 35 36 35 33 36 39 39 36 32 32 32 32 33 33 32 30 29 28 26 25 24 23 24 27 28 28 28 30 32 32 31 32 31 30 30 31 31 31 31 30 30 29 28 27 26 26 26 27 27 26 26 26 24 23 23 23 22 22 23 23 23 23 23 23 23 23 23 24 23 22 22 22 22 21 21 21 21
25 26 27 28 30 32 34 34 35 36 36 35 35 37 40 40 35 34 34 34 35 35 35 33 30 30 29 26 20 19 23 26 25 24 24 24 27 29 30 31 32 31 32 32 32 32 33 33 32 31 30 29 28 27 27 27 28 28 27 26 25 24 23 23 23 23 24 25 24 24 24 24 24 24 24 24 24 24 23 23 22 22 21 21 21
24 23 24 25 27 29 32 33 33 35 35 36 36 37 40 41 38 38 38 36 36 36 36 34 30 30 32 31 25 24 26 24 21 21 21 21 22 23 25 28 30 31 32 33 33 33 33 34 34 33 32 31 30 30 29 28 28 28 28 26 25 24 24 24 24 24 25 26 26 26 26 25 25 26 25 25 25 24 24 23 23 22 22 22 22
25 24 23 24 25 25 27 30 31 32 33 34 37 38 39 39 40 40 38 36 39 38 34 32 31 31 30 29 28 29 30 28 24 22 21 22 22 20 21 22 25 29 31 33 33 33 34 34 35 35 34 33 33 32 31 30 30 30 29 28 26 25 25 25 25 25 25 26 27 27 27 27 27 27 27 27 26 26 25 24 23 23 22 22 22
25 24 22 23 24 24 23 25 28 31 32 32 34 37 38 38 39 38 36 37 39 35 31 29 30 31 28 27 27 29 31 32 31 28 26 27 27 25 23 22 23 26 28 30 32 32 33 34 34 35 35 35 35 34 34 33 32 32 31 30 29 28 27 26 26 26 26 25 26 27 27 27 28 27 27 27 27 27 26 25 24 23 22 22 22
25 23 22 21 23 24 24 24 27 29 31 31 32 36 37 35 34 34 35 37 36 31 28 27 28 28 27 26 27 28 30 32 32 31 31 31 31 31 29 27 27 27 27 27 28 28 28 30 31 32 34 35 36 36 35 35 34 34 33 32 31 30 29 28 27 27 27 27 26 26 26 27 27 27 27 27 27 27 27 27 25 24 22 22 22
24 23 21 21 21 23 24 24 25 27 27 28 30 33 33 31 30 31 33 35 35 30 24 24 25 26 26 27 28 28 29 30 30 29 30 31 32 32 31 30 32 31 29 28 27 26 26 27 28 28 29 31 33 34 35 35 35 35 34 33 31 30 30 29 29 28 28 28 28 27 26 26 26 26 27 27 27 28 28 28 27 25 24 23 23
20 20 20 19 19 20 22 23 24 26 26 26 27 29 29 27 27 29 31 32 30 25 21 21 24 25 27 28 29 30 32 34 32 29 29 31 31 31 30 30 31 32 30 30 30 29 29 29 29 28 27 28 29 30 32 33 34 35 35 33 32 31 30 29 29 29 29 29 29 28 27 27 26 26 27 27 28 28 29 29 28 27 26 24 24
15 16 17 17 17 17 19 21 22 24 23 23 25 25 25 25 25 26 28 26 25 23 23 24 25 26 28 29 29 31 34 36 35 33 32 31 31 31 31 29 30 31 29 28 31 31 30 30 29 29 28 28 27 27 28 30 31 33 34 34 33 32 31 29 28 28 28 28 29 29 29 28 28 28 28 28 28 28 29 29 29 28 27 26 25
13 14 15 16 17 16 17 19 21 21 20 21 23 23 22 23 23 24 26 26 27 27 28 29 29 30 30 31 32 32 33 35 35 36 36 34 33 33 33 31 32 34 31 29 31 32 31 29 28 27 27 27 26 25 25 26 27 28 29 31 31 31 30 29 28 28 28 29 29 30 30 30 29 29 29 29 28 29 29 30 30 30 29 28 27
12 13 14 15 15 15 15 17 19 19 19 20 21 21 22 23 24 26 28 29 30 31 32 33 34 34 34 35 36 35 34 33 35 38 38 38 36 35 34 33 34 35 34 31 32 34 34 30 26 26 26 25 25 25 24 25 25 25 26 27 29 29 29 29 29 30 30 30 30 31 31 31 31 31 31 31 30 30 30 30 31 31 31 30 29
14 14 15 16 16 16 16 17 18 19 19 20 21 22 24 25 27 29 30 31 31 32 33 35 36 37 36 36 36 36 35 34 35 38 39 40 38 35 33 34 34 34 34 33 32 35 36 32 27 26 25 23 23 24 25 25 26 25 25 27 28 29 29 29 29 28 28 28 29 30 30 31 32 32 32 32 32 32 32 31 31 31 32 32 31
16 16 16 17 18 18 19 19 21 21 22 23 24 26 27 29 30 32 33 34 34 35 35 36 38 38 37 36 35 35 34 32 33 36 38 40 39 37 35 35 35 34 33 32 32 35 36 34 30 28 25 22 21 21 22 23 24 24 24 25 26 27 26 26 25 24 24 25 26 28 29 30 31 31 32 32 33 33 33 32 32 32 31 31 31
17 17 17 18 19 20 20 21 22 24 25 27 28 30 32 33 35 36 37 37 38 40 39 39 40 40 39 37 36 36 35 33 31 32 34 37 37 38 37 36 36 35 34 32 32 33 34 35 32 29 25 21 18 18 18 19 19 20 21 22 22 23 23 22 23 23 24 25 26 27 28 28 29 29 30 31 31 32 33 32 32 31 30 31 31
16 17 18 18 19 19 20 21 22 23 25 27 29 31 33 35 37 39 40 39 40 42 42 42 42 41 40 38 36 37 37 35 32 30 31 33 35 36 36 36 36 37 37 34 33 33 33 34 33 29 26 21 17 16 17 16 15 16 18 20 20 20 21 21 23 24 24 25 25 26 26 27 27 27 28 28 29 30 31 31 30 29 29 29 31
14 14 15 16 17 17 18 19 21 22 23 25 27 29 30 32 35 37 38 39 39 41 42 42 42 42 42 40 38 38 37 35 34 32 31 30 31 33 34 34 34 36 38 37 36 36 34 33 33 30 27 24 19 18 18 17 15 14 15 17 18 19 20 21 23 23 24 24 24 25 25 25 26 26 26 26 26 27 28 29 29 28 27 28 29
15 15 14 14 14 14 16 17 19 20 22 24 25 27 29 30 32 34 35 36 37 39 41 41 40 40 42 42 40 39 37 35 34 34 33 30 29 29 30 30 31 33 35 37 39 39 37 35 35 33 31 29 24 21 20 19 17 15 15 16 16 17 18 20 21 22 23 23 24 25 25 26 26 26 26 26 26 26 27 28 28 28 28 28 30
15 14 14 13 13 14 15 16 18 19 20 22 23 25 27 29 30 32 33 34 35 36 38 39 39 39 42 42 40 39 37 36 35 35 34 34 32 30 29 29 31 32 34 37 39 40 39 38 38 37 35 34 31 25 22 22 21 20 19 18 18 18 18 18 19 21 22 23 24 25 26 26 26 27 27 27 27 27 27 28 28 29 29 29 30
13 12 12 13 15 16 17 18 19 19 20 21 23 25 26 27 28 29 31 31 33 34 35 37 38 39 41 41 40 40 38 36 36 35 35 37 36 34 32 31 32 33 33 35 37 38 39 38 39 39 39 38 36 30 26 24 23 22 22 21 21 21 20 20 20 21 22 23 24 24 24 25 25 26 27 27 28 28 28 29 29 29 29 30 31
11 11 12 14 15 17 17 18 18 19 21 23 25 26 25 25 26 27 28 29 30 32 34 35 36 38 41 41 40 40 39 37 37 36 36 38 38 37 36 33 33 34 34 34 35 36 38 38 39 40 40 40 39 34 29 27 25 24 24 24 23 23 23 22 22 22 22 23 24 24 24 24 25 25 25 26 26 27 28 28 28 28 29 30 31
11 11 12 14 16 17 17 17 18 19 21 24 25 24 23 24 25 25 26 28 28 29 31 33 34 35 39 40 39 39 38 37 38 38 37 38 39 38 39 37 35 35 36 36 35 36 37 39 40 41 41 40 39 36 33 29 27 27 26 25 24 24 24 24 23 23 24 25 26 26 26 26 26 26 26 25 25 26 26 27 27 28 28 29 29
13 12 13 15 17 17 17 16 17 19 21 23 24 23 22 23 23 23 23 25 27 27 29 31 33 34 36 38 38 38 38 37 37 38 38 39 40 40 40 40 37 36 37 38 37 36 35 37 40 41 40 40 39 38 36 32 29 28 27 26 25 25 25 25 24 24 25 26 27 27 27 27 27 27 27 26 25 25 25 26 26 27 27 27 27
14 14 14 15 16 17 16 16 17 19 21 23 24 24 24 25 25 23 22 23 24 25 26 28 31 33 34 35 35 36 38 37 37 38 39 39 40 41 41 40 39 37 37 39 39 36 35 37 39 40 39 37 37 38 37 34 31 29 28 27 26 26 26 26 26 25 25 26 26 27 28 28 28 28 27 26 25 25 25 25 25 26 26 25 25
15 14 14 15 16 17 16 16 17 18 20 23 24 24 26 26 26 26 25 25 25 24 24 25 28 30 32 33 33 34 36 36 36 37 38 40 41 42 41 40 40 39 38 39 39 37 35 36 38 39 38 37 37 38 37 35 32 30 29 28 28 27 27 27 27 25 24 25 26 26 27 28 28 28 27 27 26 26 25 25 25 25 25 24 24
15 14 14 15 17 17 15 16 17 18 20 23 24 25 28 29 27 26 27 27 28 27 26 25 27 31 32 32 32 33 35 36 36 37 39 40 41 42 41 40 40 40 38 38 39 38 36 36 37 38 38 37 37 38 39 37 34 33 30 29 29 28 27 28 27 25 25 25 25 26 26 27 27 27 27 27 27 26 26 26 25 25 24 23 23
15 15 15 16 17 16 16 17 18 19 21 24 25 25 28 29 28 29 30 30 30 30 29 27 28 30 33 34 34 35 36 37 38 39 39 40 40 41 41 40 39 40 39 39 39 38 37 37 39 38 36 34 35 37 39 38 36 33 29 27 28 28 27 28 27 25 24 24 25 25 25 25 25 26 26 27 26 25 25 25 24 23 22 22 21
16 17 17 17 17 17 18 18 20 21 22 23 24 25 27 28 29 31 34 35 34 30 28 29 29 29 31 34 35 36 37 38 39 40 39 39 40 41 42 40 40 41 41 40 41 40 39 38 40 40 37 34 36 38 38 37 34 30 27 27 28 26 25 27 27 25 23 23 25 25 24 23 24 25 26 25 25 25 25 24 23 22 22 21 21
17 18 18 18 18 19 20 20 22 24 24 23 24 24 25 27 29 31 35 37 35 30 27 27 30 30 30 32 33 34 34 35 37 38 38 38 39 41 43 43 43 44 43 42 42 41 41 42 42 41 38 37 38 38 37 35 32 29 27 27 27 25 24 25 25 24 23 22 23 24 23 22 23 24 24 24 24 24 25 24 22 21 20 19 18
18 18 18 19 19 19 21 21 22 24 25 24 23 23 24 27 28 31 35 37 33 29 26 25 27 29 28 29 29 30 30 32 35 38 39 40 42 43 44 44 45 46 46 45 44 41 41 42 44 43 41 40 40 39 37 35 31 28 27 26 25 24 23 24 24 24 23 23 23 23 21 20 21 22 23 23 23 23 23 22 21 20 18 15 15
17 17 18 19 19 19 20 21 22 23 24 24 23 22 24 27 27 30 35 37 32 27 24 20 20 23 24 24 26 27 29 30 33 37 40 41 43 44 44 45 46 48 48 48 47 44 42 42 44 45 43 41 40 39 37 33 29 27 26 25 24 24 23 24 24 23 23 23 23 22 22 21 21 21 22 21 20 21 22 20 19 19 17 15 14
16 17 17 18 18 18 19 20 21 22 23 24 23 22 23 26 28 29 33 37 34 28 22 14 12 16 19 20 23 25 28 31 33 36 38 40 41 42 42 44 46 48 49 49 49 47 44 42 43 44 42 40 38 37 35 31 27 25 24 23 22 22 21 21 22 23 23 23 22 21 22 21 19 20 20 19 18 20 20 19 19 19 18 17 16
16 16 16 17 18 18 19 20 21 21 20 22 22 21 23 26 28 29 32 34 35 31 23 14 9 13 17 20 24 26 28 31 34 37 40 41 41 42 43 45 46 48 49 50 49 48 46 44 43 42 40 38 35 34 33 30 26 24 23 21 21 19 17 19 22 24 24 23 21 20 22 21 17 18 18 16 17 19 18 17 18 18 18 18 17
16 16 16 17 19 20 19 20 20 19 17 19 21 21 22 25 27 29 31 33 35 33 26 19 14 13 14 18 24 27 29 30 30 33 37 38 38 40 44 45 44 44 47 49 48 48 46 44 42 41 39 36 32 30 30 28 25 23 21 20 20 20 20 22 24 24 23 22 21 20 21 19 17 16 16 14 15 17 17 18 19 18 17 17 17
17 16 17 18 20 21 20 20 20 17 15 16 19 20 21 23 26 29 31 33 35 36 31 25 22 19 19 21 21 19 20 23 24 24 27 31 32 32 37 41 41 41 43 44 44 44 43 42 40 39 37 34 31 29 28 25 23 22 22 22 23 23 24 25 25 25 23 21 20 20 20 19 16 16 15 14 15 16 17 18 18 17 16 16 16
17 16 17 18 18 20 20 20 19 15 14 15 17 19 21 22 24 27 29 31 33 35 34 30 26 25 24 24 25 23 18 16 17 17 17 23 27 27 29 34 38 38 39 40 40 40 39 38 37 37 36 34 31 29 27 25 23 23 24 26 25 24 25 25 24 23 21 21 20 19 19 18 16 16 15 14 14 16 17 16 15 15 15 15 15
17 16 17 17 17 18 19 19 18 14 12 14 16 18 21 22 23 24 27 29 30 32 33 32 31 30 28 26 25 26 27 23 17 12 10 13 19 26 31 33 36 37 37 36 37 38 37 38 38 38 38 37 33 29 27 25 24 23 25 26 25 24 24 23 21 20 20 20 19 19 19 19 17 16 15 14 14 16 17 17 15 15 14 13 13
Wind_Direction
260 258 255 254 255 254 254 256 258 260 259 260 260 259 262 265 266 269 271 272 271 265 259 259 259 254 251 248 246 247 246 246 245 245 243 243 246 247 251 250 241 235 234 230 226 222 212 211 218 217 214 214 215 217 217 213 212 214 218 222 224 226 228 231 235 238 240 241 245 246 249 255 257 260 266 272 275 276 277 279 283 287 290 292 294
264 262 258 257 256 254 255 258 259 259 259 262 261 258 261 265 268 269 270 271 269 263 258 257 257 256 255 251 246 243 244 245 245 246 245 245 245 246 250 251 245 239 234 231 230 227 220 215 220 224 221 218 217 219 220 221 219 218 223 227 231 234 237 240 242 245 247 248 250 251 252 255 258 261 267 274 277 278 279 281 285 290 292 293 294
263 261 258 257 256 254 255 257 258 259 259 261 262 260 260 262 266 270 270 269 267 261 257 258 257 257 257 255 251 245 242 244 245 245 245 245 245 245 250 251 247 242 237 233 232 231 228 222 221 225 228 227 226 225 225 228 229 227 228 231 236 240 242 245 247 248 251 253 255 256 256 258 260 263 267 272 276 279 282 284 286 290 293 294 294
264 263 261 259 256 255 256 257 258 258 258 260 260 259 258 258 262 268 268 266 265 260 257 259 260 260 259 260 257 250 245 245 246 246 246 246 245 246 249 252 249 245 241 236 233 233 232 229 226 227 229 231 232 233 234 235 236 236 236 238 240 243 247 249 251 252 254 255 257 259 260 261 262 264 267 270 274 280 284 288 288 289 292 293 295
264 265 265 265 262 259 257 257 259 256 255 258 259 258 258 260 261 263 262 262 262 260 258 260 262 262 261 263 261 254 249 249 249 249 248 247 245 246 248 252 251 246 241 237 234 233 234 233 230 230 232 234 236 237 238 239 241 242 243 244 245 247 250 252 255 257 257 258 260 261 263 264 264 265 266 268 272 277 281 285 287 287 290 292 294
268 268 266 266 266 263 260 258 258 256 254 254 256 258 259 261 261 260 259 259 260 259 259 260 263 264 262 263 262 258 255 255 257 254 251 248 246 245 247 250 249 244 239 237 236 233 233 234 231 232 234 236 239 239 240 241 242 244 246 247 249 251 252 254 256 258 260 261 262 262 264 265 265 265 266 268 269 271 273 277 280 283 285 287 290
273 273 271 268 268 267 264 262 259 256 253 253 254 256 257 258 259 258 256 255 257 258 258 259 259 260 259 258 258 258 258 260 264 261 256 251 247 245 246 247 245 241 238 237 237 235 234 234 232 232 234 236 239 240 240 241 242 243 244 247 249 252 254 256 257 259 261 262 262 262 263 264 264 264 265 266 267 267 268 270 273 276 279 280 283
275 274 274 272 271 270 269 267 264 260 255 253 253 254 254 255 256 257 255 253 254 256 257 256 254 256 258 256 252 254 256 260 265 265 260 254 251 248 246 245 243 240 238 238 237 236 235 234 233 232 234 237 239 240 241 241 243 243 244 246 248 252 254 256 258 260 261 262 263 263 262 264 264 265 265 265 266 266 266 267 269 271 274 276 278
280 277 276 275 274 273 272 270 267 264 260 255 253 253 254 255 255 255 254 254 254 253 254 254 255 258 260 257 252 250 253 258 263 264 261 258 256 252 247 244 243 240 237 237 236 236 235 233 233 234 235 238 239 240 241 242 244 244 245 246 248 250 253 256 257 259 260 261 263 264 265 265 265 266 267 266 266 266 265 266 268 271 273 275 276
283 283 281 279 277 274 272 269 267 264 262 258 254 253 253 254 255 253 252 253 254 254 255 256 259 261 262 260 254 250 251 254 258 259 259 259 259 257 250 244 244 241 237 235 236 237 236 233 233 235 237 239 240 242 242 244 245 245 245 246 248 250 252 255 257 259 260 260 261 262 263 264 266 267 268 268 268 267 268 268 270 272 274 276 277
282 282 281 281 280 277 272 267 265 263 263 260 255 251 250 250 251 251 251 251 253 256 257 258 260 260 261 262 258 253 252 252 253 254 256 258 259 258 254 248 245 243 239 237 238 238 237 235 233 235 237 240 243 246 247 247 247 247 246 247 248 250 253 255 257 260 262 263 262 261 262 263 264 265 266 268 268 268 268 269 270 272 274 275 276
278 278 278 279 280 278 274 268 264 262 262 260 257 253 250 249 249 250 251 251 252 254 256 258 260 261 262 262 259 255 254 253 253 253 254 256 257 257 255 252 250 247 243 241 240 239 239 238 236 236 238 241 243 247 250 251 250 249 248 248 249 250 252 255 257 260 262 264 265 264 264 264 265 266 267 267 267 267 267 267 268 270 272 273 274
275 275 277 278 279 277 274 271 266 261 259 259 260 258 255 253 251 251 250 251 252 253 256 257 258 260 260 261 259 256 254 254 255 255 255 255 255 255 254 252 251 250 248 246 244 241 240 240 240 240 242 245 246 247 249 252 252 250 248 249 250 251 253 255 258 260 263 264 265 266 266 266 267 267 267 268 268 267 267 267 268 268 270 271 272
274 274 274 276 278 277 275 273 270 264 259 259 259 259 257 255 253 251 248 249 252 253 253 253 254 256 259 262 263 259 255 254 256 257 257 255 254 254 254 252 252 251 250 249 248 246 243 241 241 242 244 247 250 250 250 251 251 250 249 251 252 252 254 256 259 261 263 264 265 267 267 267 268 268 268 268 269 269 268 268 268 268 269 270 272
278 278 276 275 274 273 273 273 272 266 261 260 258 256 255 254 252 251 250 250 252 253 251 249 250 253 256 259 262 264 262 257 256 258 258 255 252 253 254 253 253 252 251 251 250 249 247 245 244 244 246 248 250 251 251 251 251 250 252 255 256 255 257 259 260 261 261 262 263 265 267 268 269 269 269 269 269 269 269 269 269 269 269 270 271
276 277 277 277 275 271 269 271 271 265 260 258 257 256 254 253 254 255 253 251 251 253 252 248 246 249 250 251 256 262 264 261 260 261 261 257 253 253 254 255 254 253 252 252 252 251 250 249 250 249 250 251 252 252 253 253 252 251 253 255 255 255 258 259 259 259 258 259 259 261 263 266 268 268 269 269 269 270 270 270 270 270 271 272 272
278 275 273 275 277 274 269 268 269 266 262 259 257 256 254 252 254 257 256 254 253 252 251 248 245 248 248 246 247 250 257 265 269 269 266 260 255 254 254 255 254 253 253 253 254 253 251 251 252 252 253 254 254 254 254 255 254 253 252 253 254 254 256 258 259 259 259 258 258 258 259 262 264 265 265 266 267 268 269 270 271 272 273 274 274
286 283 277 273 275 276 271 267 265 262 260 260 258 255 254 253 252 255 256 257 256 251 250 250 249 252 252 250 250 252 259 267 271 271 271 267 262 258 255 255 254 253 253 254 255 255 254 254 254 254 254 254 255 256 256 255 255 253 252 252 253 254 256 258 259 261 261 260 259 258 258 259 261 262 262 262 263 264 265 267 269 271 272 272 272
285 284 281 276 274 277 275 269 266 262 259 258 257 256 256 255 253 253 255 257 253 248 249 252 253 254 254 253 254 257 259 259 259 265 272 272 269 263 258 257 255 253 252 253 254 255 256 257 257 256 256 256 256 256 256 255 254 253 253 252 252 253 255 257 260 262 263 262 260 259 259 259 259 260 261 262 262 263 263 264 265 267 269 269 269
280 278 277 276 275 277 277 273 270 267 263 260 260 259 256 254 253 254 257 256 251 248 251 253 252 254 255 254 254 255 256 255 255 258 262 266 268 265 261 259 258 255 253 252 253 254 256 257 257 257 257 257 256 257 257 256 255 253 252 252 252 253 255 258 260 262 263 263 261 261 260 259 259 259 260 261 262 262 262 261 262 264 266 267 266
279 275 274 275 276 277 277 274 270 268 265 261 262 262 259 256 254 254 256 255 251 249 251 252 251 253 254 256 258 258 257 255 254 255 256 260 264 266 262 259 258 256 254 253 253 253 254 256 257 257 256 256 256 256 257 257 255 254 253 253 253 255 257 259 261 262 262 262 262 263 262 261 260 260 260 260 260 261 261 261 260 261 262 263 264
274 271 273 277 280 279 276 273 271 270 265 258 257 261 263 259 254 254 255 256 255 252 250 251 252 254 255 258 260 259 255 253 253 254 253 254 260 266 266 260 258 257 255 254 254 254 255 258 259 259 258 257 256 256 256 257 256 254 254 255 255 257 259 261 262 261 260 260 260 262 263 262 262 261 261 261 261 260 260 261 260 259 259 259 261
269 267 272 280 284 282 279 274 271 270 266 260 259 263 266 262 257 257 256 256 258 258 255 253 253 255 256 257 258 257 255 256 258 258 256 255 259 265 268 264 262 263 261 257 255 255 257 259 259 260 261 260 259 258 258 258 257 255 254 256 258 259 261 263 264 263 261 258 258 259 261 261 261 261 261 261 261 261 260 259 259 258 258 257 258
268 264 271 279 281 281 280 276 272 270 269 268 265 264 263 260 259 262 262 262 262 262 260 257 255 255 257 259 260 260 260 260 262 262 262 262 264 267 270 268 265 267 268 264 259 255 256 258 258 258 259 259 259 260 260 260 258 256 255 257 259 261 262 264 265 264 261 258 256 256 258 260 261 262 262 261 261 260 259 258 256 256 256 255 254
279 272 274 278 276 272 273 273 272 272 272 271 268 264 259 258 261 267 271 271 270 268 265 263 262 262 264 267 267 265 264 262 261 260 261 262 263 265 268 268 265 266 270 269 264 259 257 255 255 255 255 254 255 258 260 260 258 256 256 258 259 260 261 261 262 262 260 258 257 256 257 259 260 261 261 261 261 259 258 257 256 254 253 253 253
295 285 281 278 272 267 266 270 272 271 270 270 268 263 261 262 265 267 268 267 268 268 268 267 266 267 269 270 269 267 264 262 260 258 257 255 256 260 263 264 264 265 268 269 268 264 258 253 252 253 253 252 252 255 257 259 258 256 257 259 259 258 258 259 261 262 262 260 259 259 260 260 260 260 260 260 260 260 258 257 256 255 252 252 252
300 292 286 282 276 270 267 268 272 273 271 269 266 262 261 262 263 264 265 265 266 266 266 266 266 267 267 266 266 264 263 262 260 259 258 255 254 258 260 260 261 263 265 267 268 264 258 254 253 251 252 252 251 254 257 258 258 258 258 259 258 258 258 260 262 263 261 260 259 260 260 261 261 260 260 259 258 258 258 257 257 256 254 252 252
302 297 292 288 285 281 276 273 273 274 274 274 272 270 268 267 266 266 265 265 266 266 265 265 266 265 265 264 263 262 262 264 264 261 259 255 255 256 255 255 256 258 262 264 265 264 257 254 254 252 252 251 251 254 256 257 259 259 259 258 258 258 258 258 259 258 257 257 257 257 259 260 261 262 261 260 259 257 257 258 258 257 256 255 254
303 301 298 295 293 289 287 283 279 277 276 275 276 276 274 273 271 269 267 266 267 267 267 267 267 266 264 262 261 260 261 264 267 263 257 254 254 254 252 251 251 252 255 259 262 263 258 253 253 254 254 252 248 250 252 254 257 257 256 256 256 256 254 254 255 256 257 257 257 257 258 260 261 261 262 261 260 258 257 258 258 258 258 257 256
306 302 300 299 298 295 292 290 286 284 280 278 277 277 276 275 273 271 270 268 268 267 266 265 265 265 263 260 258 259 260 262 265 264 259 254 251 250 248 247 248 250 251 254 259 263 260 255 253 254 255 252 244 243 247 252 257 258 254 251 251 252 252 254 256 258 258 257 257 258 258 259 260 261 263 263 262 260 259 259 259 258 257 257 256
315 309 305 302 299 297 295 292 290 288 286 284 281 280 279 277 276 274 272 270 268 266 266 264 262 262 262 259 257 257 259 261 262 262 260 255 250 248 246 245 247 249 250 251 255 260 259 255 254 253 255 254 247 240 242 248 255 259 254 250 251 252 253 255 256 257 257 256 257 257 257 259 260 262 263 263 262 261 259 259 259 258 257 256 255
319 317 314 308 302 298 297 296 295 293 291 290 288 286 284 282 280 277 275 273 270 267 266 263 260 259 259 258 257 257 257 258 259 260 258 256 254 252 248 245 246 247 248 248 251 256 257 255 255 255 255 257 253 242 240 245 251 257 257 253 252 253 254 255 255 256 256 257 257 258 259 260 260 261 261 260 260 258 258 258 259 259 259 258 256
318 318 316 311 307 305 304 305 305 303 300 298 296 294 291 286 282 279 276 274 272 270 267 264 260 257 256 256 255 255 255 256 257 257 255 254 256 256 253 250 249 247 246 246 248 254 257 256 256 256 254 255 254 246 241 245 250 254 256 253 252 253 255 256 258 259 260 261 263 264 263 263 263 263 262 261 260 259 258 258 258 259 259 258 257
315 313 312 309 307 307 309 311 313 314 312 310 308 305 300 293 285 279 275 273 271 269 267 264 261 256 254 254 253 253 253 254 254 254 253 252 253 256 255 253 252 250 246 245 247 251 254 255 256 256 254 252 251 248 244 247 252 255 256 255 255 257 257 258 261 264 265 267 269 270 268 266 265 265 265 265 264 263 262 261 260 260 260 259 257
313 308 307 306 305 305 308 313 317 320 320 318 317 313 307 301 293 285 278 275 273 270 266 263 261 258 255 253 251 251 252 251 251 250 250 251 251 253 254 254 255 252 247 245 247 250 253 254 255 256 255 252 250 248 248 252 255 255 254 255 257 259 259 260 263 265 267 268 270 271 270 268 268 268 269 269 268 266 264 262 262 262 261 260 259
310 307 308 310 309 307 309 315 320 323 324 324 324 319 311 305 299 291 283 279 277 273 268 263 260 258 257 255 252 251 251 250 250 249 248 249 250 251 252 255 256 254 249 246 247 250 254 254 253 254 254 254 252 251 252 254 255 252 251 252 255 259 260 260 262 265 267 268 270 271 271 272 271 271 271 271 270 268 266 265 264 264 264 264 263
303 302 312 317 316 312 313 317 320 323 327 330 331 326 319 312 305 296 288 284 282 277 271 265 258 255 257 258 256 253 250 248 248 248 247 248 250 251 253 257 258 255 250 246 246 250 253 252 250 251 253 255 254 253 253 253 253 251 249 250 254 258 260 258 259 263 266 269 271 273 273 273 273 273 272 271 270 269 269 269 268 268 268 268 268
305 300 307 317 321 320 317 318 319 322 330 336 336 332 327 324 318 310 301 294 290 282 273 266 260 257 256 257 258 254 250 247 246 246 247 248 251 253 255 258 258 256 251 246 244 248 253 251 248 248 251 253 254 254 252 251 253 252 250 251 254 257 257 255 256 260 265 270 274 275 275 273 271 272 270 268 268 269 270 271 271 271 271 271 271
314 305 303 312 324 327 324 323 323 324 333 338 337 333 330 328 325 319 313 307 300 291 280 270 263 260 257 256 256 254 251 248 246 246 248 248 250 253 255 256 256 254 251 246 243 245 250 251 247 245 247 250 252 253 251 251 254 253 250 252 253 254 254 254 255 259 265 270 275 277 276 272 269 267 267 267 267 268 269 270 271 271 271 271 270
319 315 309 313 325 333 335 335 332 330 335 338 336 332 331 331 329 326 322 317 309 299 289 277 266 262 260 256 252 249 249 249 247 247 249 249 249 251 253 253 252 252 249 244 242 244 246 248 249 248 248 248 248 250 250 250 252 251 248 251 255 254 253 255 256 259 264 272 277 279 276 271 267 265 266 267 267 267 267 268 270 271 269 269 268
318 318 318 319 323 328 333 337 337 336 338 339 337 333 332 333 331 329 328 325 318 307 294 282 271 264 261 258 254 251 250 250 249 250 250 250 250 250 250 248 246 248 247 243 241 243 243 245 248 249 247 245 243 245 246 248 249 249 250 253 256 256 257 258 256 256 264 274 279 279 275 270 266 265 266 268 268 267 267 267 269 268 267 268 267
316 316 317 319 319 319 323 330 334 337 338 338 337 336 335 334 333 332 332 330 326 315 297 284 275 267 261 259 258 258 257 254 252 251 251 251 250 250 250 247 243 244 244 241 241 243 242 243 246 245 243 241 242 243 244 246 248 248 248 251 255 258 261 260 255 254 264 276 280 278 273 267 265 266 267 268 267 266 265 266 266 265 265 268 264
316 315 315 317 317 315 317 323 330 334 336 337 338 339 339 338 337 337 338 337 333 323 306 287 276 271 267 263 262 263 260 256 253 251 251 251 251 250 249 247 245 245 244 241 240 241 241 242 244 243 240 240 244 246 245 246 247 246 246 250 256 261 263 261 258 259 267 276 278 275 270 265 265 267 268 268 266 264 263 262 260 258 261 265 255
312 314 315 317 317 315 314 319 327 332 335 337 339 342 343 342 342 343 345 346 339 324 311 295 278 272 269 265 263 262 260 255 252 252 253 254 254 252 249 246 244 245 246 245 242 240 241 242 242 241 240 242 246 247 244 244 244 244 247 251 256 261 264 262 260 262 270 277 276 271 267 264 265 267 269 269 265 260 258 255 251 250 252 254 245
309 313 317 319 320 317 314 318 326 332 336 338 339 343 347 347 346 346 350 354 347 327 312 303 288 280 278 274 269 265 263 260 258 257 257 256 254 252 249 246 243 242 244 246 245 244 244 245 243 242 243 246 248 245 242 242 243 245 249 252 256 263 265 261 260 264 271 273 268 266 264 261 262 266 268 268 263 256 253 249 244 242 241 241 238
309 315 320 324 327 325 320 321 326 332 337 339 339 345 351 351 348 348 353 359 357 340 322 311 290 278 277 277 274 270 266 264 261 259 257 255 252 250 247 244 241 239 240 241 243 244 244 245 245 245 247 249 250 248 245 243 245 248 250 254 260 265 262 258 258 262 265 263 257 259 261 259 262 266 266 264 259 253 250 245 240 238 237 236 235
313 319 323 328 334 333 327 324 327 332 339 341 342 348 354 353 352 353 356 3 6 356 343 340 318 286 277 275 274 270 268 266 263 259 257 254 251 249 247 243 239 238 238 237 237 238 239 241 243 244 245 245 247 249 247 245 247 250 249 253 258 257 252 253 255 257 260 257 250 251 257 259 261 263 263 260 255 252 246 238 235 236 236 236 236
317 320 321 326 332 332 328 323 323 332 344 345 345 351 355 353 354 357 359 6 12 8 3 14 14 343 320 308 293 278 270 271 270 263 258 255 251 248 246 242 238 237 237 235 233 233 235 238 240 241 241 240 241 244 243 242 246 246 243 246 249 246 246 251 254 256 257 254 248 247 252 256 256 256 256 253 250 248 242 233 232 235 236 237 236
321 321 319 324 332 334 332 325 321 329 347 350 349 354 356 353 356 359 0 5 12 12 10 19 27 20 12 1 340 309 283 278 279 271 257 251 249 245 238 235 235 236 236 234 232 232 232 234 236 237 237 237 238 238 237 236 239 238 237 239 241 242 245 249 253 256 255 250 246 244 246 248 247 246 248 249 247 245 238 231 231 236 238 238 237
322 320 318 324 332 336 337 330 321 326 344 350 353 359 359 356 357 1 1 2 8 11 11 16 23 24 20 14 6 359 348 324 302 287 267 253 248 239 229 228 231 234 234 233 231 230 229 230 231 232 232 233 234 234 232 230 230 230 232 236 239 240 243 248 252 255 253 247 242 237 237 240 241 241 245 246 244 241 235 229 229 235 238 238 238
320 318 318 324 329 334 338 334 325 325 338 349 356 3 4 1 0 3 3 2 5 8 10 14 19 21 18 15 13 12 11 6 349 315 284 262 250 239 231 229 231 233 233 232 229 226 222 222 222 223 226 229 230 229 226 224 227 230 232 234 235 236 240 244 246 245 243 241 235 229 230 235 237 238 240 240 238 237 232 227 229 232 233 234 236